Miscellaneous Local Product
Issued by NWS Hastings, NE

Home | Current Version | Previous Version | Graphics & Text | Print | Product List | Glossary On
Versions: 1 2 3 4 5 6 7 8 9 10 11 12 13 14 15 16 17 18 19 20 21 22 23 24 25 26 27 28 29 30 31 32 33 34 35 36 37 38 39 40 41 42 43 44 45 46 47 48 49 50
000
AXUS43 KGID 181602
MISGRI

GID CWA HOURLY WEATHER ROUNDUP
NATIONAL WEATHER SERVICE HASTINGS NE
1100 AM CDT FRI APR 18 2014

NOTE: "FAIR" INDICATES FEW OR NO CLOUDS BELOW 12,000 FEET WITH NO
SIGNIFICANT WEATHER AND/OR OBSTRUCTIONS TO VISIBILITY.

...SOUTH CENTRAL NEBRASKA...

CITY           SKY/WX    TMP DP  RH WIND       PRES   REMARKS
GRAND ISLAND   SUNNY     57  38  48 S20       30.17S
HASTINGS       SUNNY     56  37  49 S15G25    30.16F
KEARNEY        SUNNY     55  43  62 S22G30    30.13F
ORD            SUNNY     56  39  53 S18G31    30.09F
YORK           SUNNY     55  36  47 S20       30.20S
AURORA         SUNNY     56  38  51 S16G23    30.18S
LEXINGTON      MOSUNNY   55  42  62 S17       30.09F
HOLDREGE       SUNNY     54  41  61 S20G25    30.12F
HEBRON         SUNNY     55  35  46 S14       30.23S

...NEBRASKA PANHANDLE...

CITY           SKY/WX    TMP DP  RH WIND       PRES   REMARKS
CHADRON        PTSUNNY   61  42  49 CALM      29.83F
ALLIANCE       PTSUNNY   59  40  49 S13       29.91F
SCOTTSBLUFF    PTSUNNY   61  40  45 SE7       29.91F
SIDNEY         MOSUNNY   63  38  39 S14       29.96F

...WESTERN AND NORTH CENTRAL NEBRASKA...

CITY           SKY/WX    TMP DP  RH WIND       PRES   REMARKS
VALENTINE      MOSUNNY   61  37  41 S25G33    29.90F
AINSWORTH      SUNNY     59  38  46 S25G37    29.94S
ONEILL         SUNNY     58  36  43 S23G31    30.05F
BROKEN BOW     MOSUNNY   54  39  57 S24G33    30.05F
IMPERIAL       SUNNY     56  38  50 S15       30.01F
NORTH PLATTE   MOSUNNY   57  38  48 S20G30    30.04S
MCCOOK         SUNNY     58  41  53 S18       30.07F

...EASTERN NEBRASKA...

CITY           SKY/WX    TMP DP  RH WIND       PRES   REMARKS
NORFOLK        SUNNY     57  34  41 S20G29    30.15F
SO SIOUX CITY  SUNNY     53  34  48 SE13      30.24S
TEKAMAH        SUNNY     57  33  40 S18       30.26R HAZE
COLUMBUS       SUNNY     55  36  47 S20G25    30.20F
ALBION         SUNNY     55  38  53 S21G28    30.15F
OMAHA EPPLEY   SUNNY     53  33  46 S15       30.28S HAZE
MILLARD        SUNNY     53  35  50 SE14G20   30.26F HAZE
LINCOLN        MOSUNNY   58  34  40 S15       30.25F HAZE
NEBRASKA CITY  SUNNY     54  35  48 S13       30.28F
BEATRICE       SUNNY     54  35  48 S14       30.25F HAZE
FALLS CITY     SUNNY     54  36  50 SE13      30.29F

...NORTHERN KANSAS...

CITY           SKY/WX    TMP DP  RH WIND       PRES   REMARKS
GOODLAND       SUNNY     54  39  57 S22       30.05F
HILL CITY      SUNNY     58  42  55 S23G31    30.14F
PHILLIPSBURG   SUNNY     59  39  47 SE15G23   30.16F
SMITH CENTER   SUNNY     55  39  54 S15       30.19F
BELOIT         SUNNY     57  37  47 SE14      30.21F
HAYS           SUNNY     61  45  55 S23G29    30.17F
RUSSELL        SUNNY     58  41  53 S16       30.18F
CONCORDIA      SUNNY     56  37  49 S16       30.23F
SALINA         SUNNY     58  38  47 S13G20    30.25F HAZE
TOPEKA         SUNNY     54  38  54 VRB6      30.31F



USA.gov is the U.S. government's official web portal to all federal, state and local government web resources and services.